Regional Weather Roundup
Issued by NWS

Home | Current Version | Previous Version | Text Only | Print | Product List | Glossary Off
Versions: 1 2 3 4 5 6 7 8 9 10 11 12 13 14 15 16 17 18 19 20 21 22 23 24 25 26 27 28 29 30 31 32 33 34 35 36 37 38 39 40 41 42 43 44 45 46 47 48 49 50

000
ASUS43 KOAX 030302
RWRNE

WEATHER ROUNDUP FOR NEBRASKA
NATIONAL WEATHER SERVICE OMAHA NE
900 PM CST FRI DEC 02 2016

NOTES: SATELLITE DATA IS BEING USED TO AUGMENT CLOUD COVER ABOVE
       12000 FEET.
       "FAIR" INDICATES FEW OR NO CLOUDS BELOW 12,000 FEET WITH NO
       SIGNIFICANT WEATHER AND/OR OBSTRUCTIONS TO VISIBILITY.

  * THESE STATIONS DO NOT REPORT WEATHER SUCH AS RAIN...SNOW OR FOG.

NEZ001>004-019>022-054>056-030400-
NEBRASKA PANHANDLE

CITY           SKY/WX    TMP DP  RH WIND       PRES   REMARKS
SCOTTSBLUFF    MOCLDY    24  15  68 S3        30.19F
ALLIANCE       CLEAR     21  14  74 W3        30.19S
CHADRON        CLEAR     23  16  74 W3        30.19F
KIMBALL        CLOUDY    24  22  93 S5        30.17F WCI  18
SIDNEY         CLEAR     18  15  88 SW8       30.20F WCI   8
$$

NEZ057>060-069>072-079>082-030400-
SOUTHWEST NEBRASKA

CITY           SKY/WX    TMP DP  RH WIND       PRES   REMARKS
NORTH PLATTE   MOCLDY    23  19  85 CALM      30.26R
IMPERIAL       CLOUDY    30  22  72 CALM      30.24F
LEXINGTON      CLEAR     25  21  86 CALM      30.27S
MCCOOK         MOCLDY    30  21  69 CALM      30.27S
OGALLALA       MOCLDY    22  18  82 W3        30.23F
$$

NEZ005>010-023>029-035>040-094-030400-
NORTH CENTRAL NEBRASKA

CITY           SKY/WX    TMP DP  RH WIND       PRES   REMARKS
VALENTINE      CLEAR     22  19  89 CALM      30.22F
AINSWORTH      CLEAR     24  22  93 CALM      30.23F
BROKEN BOW     CLEAR     23  21  92 CALM      30.26R
O`NEILL        CLEAR     26  24  93 S5        30.26S WCI  21
ORD            CLEAR     21  17  84 CALM      30.27R
THEDFORD       PTCLDY    25  18  76 CALM      30.24R
$$

NEZ041-046>049-061>064-073>077-083>087-030400-
SOUTH CENTRAL NEBRASKA

CITY           SKY/WX    TMP DP  RH WIND       PRES   REMARKS
GRAND ISLAND   CLEAR     27  23  85 S3        30.30R
AURORA         CLEAR     27  24  87 E5        30.30R WCI  21
HASTINGS       CLEAR     26  22  84 CALM      30.31R
HEBRON         PTCLDY    28  23  81 CALM      30.29F
HOLDREGE       CLEAR     26  21  80 CALM      30.28R
KEARNEY *      CLEAR     27  19  74 CALM      30.28S
YORK           PTCLDY    27  25  93 E5        30.31S WCI  21
$$

NEZ011>018-030>034-042>045-030400-
NORTHEAST NEBRASKA

CITY           SKY/WX    TMP DP  RH WIND       PRES   REMARKS
NORFOLK        CLEAR     23  20  88 SE6       30.29F WCI  16
ALBION         CLEAR     25  22  90 CALM      30.30S
BLAIR          CLEAR     31  27  84 NW3       30.32F
FREMONT        CLEAR     26  24  89 CALM      30.33F
TEKAMAH        CLOUDY    35  28  75 NW5       30.34S WCI  31
WAYNE          CLEAR     24  22  92 CALM      30.30F
$$

NEZ050>053-065>068-078-088>093-030400-
SOUTHEAST NEBRASKA

CITY           SKY/WX    TMP DP  RH WIND       PRES   REMARKS
LINCOLN        CLEAR     31  26  82 CALM      30.35R
OMAHA EPPLEY   CLOUDY    32  26  78 N5        30.34F WCI  27
BEATRICE       CLEAR     28  24  84 NE7       30.31S WCI  21
FALLS CITY       N/A    N/A N/A N/A MISG      30.32S
NEBRASKA CITY  CLEAR     31  26  81 NE3       30.33S
PLATTSMOUTH    CLEAR     32  26  78 CALM      30.33S
$$

NEZ044-045-051>053-067-030400-
OMAHA AREA

CITY           SKY/WX    TMP DP  RH WIND       PRES   REMARKS
OMAHA EPPLEY   CLOUDY    32  26  78 N5        30.34F WCI  27
BLAIR          CLEAR     31  27  84 NW3       30.32F
FREMONT        CLEAR     26  24  89 CALM      30.33F
MILLARD        CLEAR     30  27  89 CALM      30.33F
OFFUTT AFB     CLEAR     24  23  99 CALM      30.33F
PLATTSMOUTH    CLEAR     32  26  78 CALM      30.33S
WAHOO          FAIR      26  23  89 N6        30.33S WCI  19
$$




USA.gov is the U.S. government's official web portal to all federal, state and local government web resources and services.